Location: ??????????
(54.8537°N, 38.8755°E)
Time: 15:28:13
(UTC+00:00)

S-56A Canister/Altair - Pass Details

Date: 15 September 2024
Orbit: 636 x 2487 km, 38.9° (Epoch: 09 October)

Event Time Altitude Azimuth Distance (km) Brightness Sun altitude
Rises 17:32:44 0° 235° (SW) 3,521 11.3 -16.2°
Reaches altitude 10° 17:35:28 10° 221° (SW) 2,794 10.5 -16.5°
Maximum altitude 17:40:48 25° 169° (S) 2,326 9.6 -17.2°
Enters shadow 17:43:21 21° 144° (SE) 2,687 9.7 -17.5°
